Year,Month,Day,Hour,Minute,Value (Times are PST for temperature in C)
2017,02,14,00,00,-0.30
2017,02,14,00,01,-0.20
2017,02,14,00,02,-0.20
2017,02,14,00,03,-0.20
2017,02,14,00,04,-0.20
2017,02,14,00,05,-0.20
2017,02,14,00,06,-0.20
2017,02,14,00,07,-0.20
2017,02,14,00,08,-0.20
2017,02,14,00,09,-0.20
2017,02,14,00,10,-0.20
2017,02,14,00,11,-0.20
2017,02,14,00,12,-0.20
2017,02,14,00,13,-0.10
2017,02,14,00,14,-0.10
2017,02,14,00,15,-0.10
2017,02,14,00,16,-0.10
2017,02,14,00,17,0.00
2017,02,14,00,18,0.00
2017,02,14,00,19,0.00
2017,02,14,00,20,0.00
2017,02,14,00,21,0.00
2017,02,14,00,22,0.00
2017,02,14,00,23,0.00
2017,02,14,00,24,0.00
2017,02,14,00,25,0.00
2017,02,14,00,26,0.00
2017,02,14,00,27,0.00
2017,02,14,00,28,0.00
2017,02,14,00,29,0.00
2017,02,14,00,30,0.10
2017,02,14,00,31,0.10
2017,02,14,00,32,0.10
2017,02,14,00,33,0.10
2017,02,14,00,34,0.20
2017,02,14,00,35,0.20
2017,02,14,00,36,0.20
2017,02,14,00,37,0.20
2017,02,14,00,38,0.20
2017,02,14,00,39,0.20
2017,02,14,00,40,0.10
2017,02,14,00,41,0.10
2017,02,14,00,42,0.10
2017,02,14,00,43,0.10
2017,02,14,00,44,0.10
2017,02,14,00,45,0.10
2017,02,14,00,46,0.20
2017,02,14,00,47,0.20
2017,02,14,00,48,0.20
2017,02,14,00,49,0.20
2017,02,14,00,50,0.20
2017,02,14,00,51,0.20
2017,02,14,00,52,0.20
2017,02,14,00,53,0.30
2017,02,14,00,54,0.30
2017,02,14,00,55,0.30
2017,02,14,00,56,0.30
2017,02,14,00,57,0.30
2017,02,14,00,58,0.30
2017,02,14,00,59,0.30
2017,02,14,01,00,0.20
2017,02,14,01,01,0.30
2017,02,14,01,02,0.20
2017,02,14,01,03,0.20
2017,02,14,01,04,0.20
2017,02,14,01,05,0.20
2017,02,14,01,06,0.20
2017,02,14,01,07,0.20
2017,02,14,01,08,0.20
2017,02,14,01,09,0.20
2017,02,14,01,10,0.20
2017,02,14,01,11,0.20
2017,02,14,01,12,0.20
2017,02,14,01,13,0.20
2017,02,14,01,14,0.30
2017,02,14,01,15,0.30
2017,02,14,01,16,0.30
2017,02,14,01,17,0.30
2017,02,14,01,18,0.30
2017,02,14,01,19,0.30
2017,02,14,01,20,0.30
2017,02,14,01,21,0.30
2017,02,14,01,22,0.30
2017,02,14,01,23,0.30
2017,02,14,01,24,0.30
2017,02,14,01,25,0.30
2017,02,14,01,26,0.30
2017,02,14,01,27,0.20
2017,02,14,01,28,0.20
2017,02,14,01,29,0.20
2017,02,14,01,30,0.20
2017,02,14,01,31,0.20
2017,02,14,01,32,0.20
2017,02,14,01,33,0.20
2017,02,14,01,34,0.20
2017,02,14,01,35,0.20
2017,02,14,01,36,0.20
2017,02,14,01,37,0.30
2017,02,14,01,38,0.30
2017,02,14,01,39,0.30
2017,02,14,01,40,0.30
2017,02,14,01,41,0.30
2017,02,14,01,42,0.30
2017,02,14,01,43,0.30
2017,02,14,01,44,0.30
2017,02,14,01,45,0.30
2017,02,14,01,46,0.30
2017,02,14,01,47,0.30
2017,02,14,01,48,0.30
2017,02,14,01,49,0.30
2017,02,14,01,50,0.30
2017,02,14,01,51,0.30
2017,02,14,01,52,0.30
2017,02,14,01,53,0.30
2017,02,14,01,54,0.30
2017,02,14,01,55,0.30
2017,02,14,01,56,0.30
2017,02,14,01,57,0.30
2017,02,14,01,58,0.20
2017,02,14,01,59,0.20
2017,02,14,02,00,0.20
2017,02,14,02,01,0.20
2017,02,14,02,02,0.20
2017,02,14,02,03,0.20
2017,02,14,02,04,0.20
2017,02,14,02,05,0.20
2017,02,14,02,06,0.20
2017,02,14,02,07,0.20
2017,02,14,02,08,0.20
2017,02,14,02,09,0.20
2017,02,14,02,10,0.20
2017,02,14,02,11,0.20
2017,02,14,02,12,0.20
2017,02,14,02,13,0.20
2017,02,14,02,14,0.20
2017,02,14,02,15,0.20
2017,02,14,02,16,0.20
2017,02,14,02,17,0.20
2017,02,14,02,18,0.20
2017,02,14,02,19,0.20
2017,02,14,02,20,0.30
2017,02,14,02,21,0.30
2017,02,14,02,22,0.30
2017,02,14,02,23,0.30
2017,02,14,02,24,0.30
2017,02,14,02,25,0.30
2017,02,14,02,26,0.30
2017,02,14,02,27,0.30
2017,02,14,02,28,0.30
2017,02,14,02,29,0.30
2017,02,14,02,30,0.30
2017,02,14,02,31,0.30
2017,02,14,02,32,0.30
2017,02,14,02,33,0.30
2017,02,14,02,34,0.40
2017,02,14,02,35,0.40
2017,02,14,02,36,0.40
2017,02,14,02,37,0.40
2017,02,14,02,38,0.40
2017,02,14,02,39,0.40
2017,02,14,02,40,0.40
2017,02,14,02,41,0.40
2017,02,14,02,42,0.40
2017,02,14,02,43,0.50
2017,02,14,02,44,0.50
2017,02,14,02,45,0.50
2017,02,14,02,46,0.50
2017,02,14,02,47,0.60
2017,02,14,02,48,0.60
2017,02,14,02,49,0.60
2017,02,14,02,50,0.60
2017,02,14,02,51,0.60
2017,02,14,02,52,0.60
2017,02,14,02,53,0.50
2017,02,14,02,54,0.50
2017,02,14,02,55,0.50
2017,02,14,02,56,0.50
2017,02,14,02,57,0.50
2017,02,14,02,58,0.50
2017,02,14,02,59,0.50
2017,02,14,03,00,0.50
2017,02,14,03,01,0.50
2017,02,14,03,02,0.50
2017,02,14,03,03,0.50
2017,02,14,03,04,0.50
2017,02,14,03,05,0.50
2017,02,14,03,06,0.50
2017,02,14,03,07,0.50
2017,02,14,03,08,0.60
2017,02,14,03,09,0.60
2017,02,14,03,10,0.60
2017,02,14,03,11,0.60
2017,02,14,03,12,0.60
2017,02,14,03,13,0.60
2017,02,14,03,14,0.70
2017,02,14,03,15,0.70
2017,02,14,03,16,0.70
2017,02,14,03,17,0.80
2017,02,14,03,18,0.80
2017,02,14,03,19,0.80
2017,02,14,03,20,0.80
2017,02,14,03,21,0.80
2017,02,14,03,22,0.80
2017,02,14,03,23,0.70
2017,02,14,03,24,0.70
2017,02,14,03,25,0.70
2017,02,14,03,26,0.70
2017,02,14,03,27,0.70
2017,02,14,03,28,0.70
2017,02,14,03,29,0.70
2017,02,14,03,30,0.70
2017,02,14,03,31,0.80
2017,02,14,03,32,0.80
2017,02,14,03,33,0.90
2017,02,14,03,34,1.00
2017,02,14,03,35,1.10
2017,02,14,03,36,1.20
2017,02,14,03,37,1.20
2017,02,14,03,38,1.30
2017,02,14,03,39,1.40
2017,02,14,03,40,1.40
2017,02,14,03,41,1.50
2017,02,14,03,42,1.50
2017,02,14,03,43,1.50
2017,02,14,03,44,1.60
2017,02,14,03,45,1.60
2017,02,14,03,46,1.70
2017,02,14,03,47,1.80
2017,02,14,03,48,2.00
2017,02,14,03,49,2.20
2017,02,14,03,50,2.30
2017,02,14,03,51,2.50
2017,02,14,03,52,2.60
2017,02,14,03,53,2.80
2017,02,14,03,54,2.90
2017,02,14,03,55,3.10
2017,02,14,03,56,3.20
2017,02,14,03,57,3.20
2017,02,14,03,58,3.20
2017,02,14,03,59,3.30
2017,02,14,04,00,3.30
2017,02,14,04,01,3.30
2017,02,14,04,02,3.30
2017,02,14,04,03,3.40
2017,02,14,04,04,3.50
2017,02,14,04,05,3.50
2017,02,14,04,06,3.60
2017,02,14,04,07,3.60
2017,02,14,04,08,3.60
2017,02,14,04,09,3.60
2017,02,14,04,10,3.60
2017,02,14,04,11,3.60
2017,02,14,04,12,3.60
2017,02,14,04,13,3.70
2017,02,14,04,14,3.70
2017,02,14,04,15,3.70
2017,02,14,04,16,3.80
2017,02,14,04,17,3.80
2017,02,14,04,18,3.80
2017,02,14,04,19,3.80
2017,02,14,04,20,3.90
2017,02,14,04,21,3.90
2017,02,14,04,22,3.90
2017,02,14,04,23,3.90
2017,02,14,04,24,3.90
2017,02,14,04,25,3.90
2017,02,14,04,26,3.90
2017,02,14,04,27,3.90
2017,02,14,04,28,3.90
2017,02,14,04,29,4.00
2017,02,14,04,30,4.00
2017,02,14,04,31,4.00
2017,02,14,04,32,4.00
2017,02,14,04,33,4.00
2017,02,14,04,34,4.00
2017,02,14,04,35,4.10
2017,02,14,04,36,4.10
2017,02,14,04,37,4.10
2017,02,14,04,38,4.20
2017,02,14,04,39,4.20
2017,02,14,04,40,4.30
2017,02,14,04,41,4.30
2017,02,14,04,42,4.30
2017,02,14,04,43,4.30
2017,02,14,04,44,4.30
2017,02,14,04,45,4.30
2017,02,14,04,46,4.30
2017,02,14,04,47,4.20
2017,02,14,04,48,4.20
2017,02,14,04,49,4.10
2017,02,14,04,50,4.10
2017,02,14,04,51,4.00
2017,02,14,04,52,3.90
2017,02,14,04,53,3.90
2017,02,14,04,54,3.80
2017,02,14,04,55,3.80
2017,02,14,04,56,3.80
2017,02,14,04,57,3.70
2017,02,14,04,58,3.70
2017,02,14,04,59,3.70
2017,02,14,05,00,3.60
2017,02,14,05,01,3.60
2017,02,14,05,02,3.60
2017,02,14,05,03,3.60
2017,02,14,05,04,3.60
2017,02,14,05,05,3.60
2017,02,14,05,06,3.60
2017,02,14,05,07,3.60
2017,02,14,05,08,3.60
2017,02,14,05,09,3.70
2017,02,14,05,10,3.70
2017,02,14,05,11,3.80
2017,02,14,05,12,3.90
2017,02,14,05,13,3.90
2017,02,14,05,14,3.90
2017,02,14,05,15,3.80
2017,02,14,05,16,3.70
2017,02,14,05,17,3.60
2017,02,14,05,18,3.60
2017,02,14,05,19,3.60
2017,02,14,05,20,3.50
2017,02,14,05,21,3.40
2017,02,14,05,22,3.40
2017,02,14,05,23,3.40
2017,02,14,05,24,3.40
2017,02,14,05,25,3.40
2017,02,14,05,26,3.40
2017,02,14,05,27,3.40
2017,02,14,05,28,3.40
2017,02,14,05,29,3.40
2017,02,14,05,30,3.40
2017,02,14,05,31,3.40
2017,02,14,05,32,3.40
2017,02,14,05,33,3.40
2017,02,14,05,34,3.40
2017,02,14,05,35,3.40
2017,02,14,05,36,3.40
2017,02,14,05,37,3.40
2017,02,14,05,38,3.40
2017,02,14,05,39,3.40
2017,02,14,05,40,3.40
2017,02,14,05,41,3.40
2017,02,14,05,42,3.40
2017,02,14,05,43,3.40
2017,02,14,05,44,3.40
2017,02,14,05,45,3.40
2017,02,14,05,46,3.40
2017,02,14,05,47,3.40
2017,02,14,05,48,3.40
2017,02,14,05,49,3.30
2017,02,14,05,50,3.30
2017,02,14,05,51,3.30
2017,02,14,05,52,3.30
2017,02,14,05,53,3.30
2017,02,14,05,54,3.30
2017,02,14,05,55,3.30
2017,02,14,05,56,3.30
2017,02,14,05,57,3.30
2017,02,14,05,58,3.30
2017,02,14,05,59,3.40
2017,02,14,06,00,3.40
2017,02,14,06,01,3.40
2017,02,14,06,02,3.50
2017,02,14,06,03,3.50
2017,02,14,06,04,3.60
2017,02,14,06,05,3.70
2017,02,14,06,06,3.70
2017,02,14,06,07,3.80
2017,02,14,06,08,3.80
2017,02,14,06,09,3.80
2017,02,14,06,10,3.80
2017,02,14,06,11,3.80
2017,02,14,06,12,3.80
2017,02,14,06,13,3.80
2017,02,14,06,14,3.80
2017,02,14,06,15,3.90
2017,02,14,06,16,3.80
2017,02,14,06,17,3.80
2017,02,14,06,18,3.80
2017,02,14,06,19,3.80
2017,02,14,06,20,3.80
2017,02,14,06,21,3.80
2017,02,14,06,22,3.80
2017,02,14,06,23,3.70
2017,02,14,06,24,3.70
2017,02,14,06,25,3.70
2017,02,14,06,26,3.70
2017,02,14,06,27,3.70
2017,02,14,06,28,3.70
2017,02,14,06,29,3.70
2017,02,14,06,30,3.70
2017,02,14,06,31,3.70
2017,02,14,06,32,3.80
2017,02,14,06,33,3.80
2017,02,14,06,34,3.80
2017,02,14,06,35,3.70
2017,02,14,06,36,3.70
2017,02,14,06,37,3.60
2017,02,14,06,38,3.60
2017,02,14,06,39,3.70
2017,02,14,06,40,3.70
2017,02,14,06,41,3.70
2017,02,14,06,42,3.70
2017,02,14,06,43,3.70
2017,02,14,06,44,3.70
2017,02,14,06,45,3.70
2017,02,14,06,46,3.70
2017,02,14,06,47,3.70
2017,02,14,06,48,3.80
2017,02,14,06,49,3.80
2017,02,14,06,50,3.80
2017,02,14,06,51,3.80
2017,02,14,06,52,3.80
2017,02,14,06,53,3.80
2017,02,14,06,54,3.80
2017,02,14,06,55,3.80
2017,02,14,06,56,3.80
2017,02,14,06,57,3.80
2017,02,14,06,58,3.90
2017,02,14,06,59,4.00
2017,02,14,07,00,4.10
2017,02,14,07,01,4.10
2017,02,14,07,02,4.20
2017,02,14,07,03,4.20
2017,02,14,07,04,4.30
2017,02,14,07,05,4.30
2017,02,14,07,06,4.30
2017,02,14,07,07,4.30
2017,02,14,07,08,4.30
2017,02,14,07,09,4.40
2017,02,14,07,10,4.40
2017,02,14,07,11,4.40
2017,02,14,07,12,4.40
2017,02,14,07,13,4.40
2017,02,14,07,14,4.40
2017,02,14,07,15,4.40
2017,02,14,07,16,4.40
2017,02,14,07,17,4.30
2017,02,14,07,18,4.20
2017,02,14,07,19,4.20
2017,02,14,07,20,4.10
2017,02,14,07,21,4.20
2017,02,14,07,22,4.30
2017,02,14,07,23,4.40
2017,02,14,07,24,4.50
2017,02,14,07,25,4.60
2017,02,14,07,26,4.70
2017,02,14,07,27,4.80
2017,02,14,07,28,4.80
2017,02,14,07,29,4.90
2017,02,14,07,30,4.90
2017,02,14,07,31,5.00
2017,02,14,07,32,5.00
2017,02,14,07,33,5.00
2017,02,14,07,34,5.10
2017,02,14,07,35,5.10
2017,02,14,07,36,5.20
2017,02,14,07,37,5.20
2017,02,14,07,38,5.20
2017,02,14,07,39,5.30
2017,02,14,07,40,5.30
2017,02,14,07,41,5.30
2017,02,14,07,42,5.20
2017,02,14,07,43,5.20
2017,02,14,07,44,5.20
2017,02,14,07,45,5.20
2017,02,14,07,46,5.10
2017,02,14,07,47,5.10
2017,02,14,07,48,5.00
2017,02,14,07,49,4.90
2017,02,14,07,50,4.90
2017,02,14,07,51,4.90
2017,02,14,07,52,4.80
2017,02,14,07,53,4.80
2017,02,14,07,54,4.80
2017,02,14,07,55,4.70
2017,02,14,07,56,4.70
2017,02,14,07,57,4.70
2017,02,14,07,58,4.70
2017,02,14,07,59,4.70
2017,02,14,08,00,4.60
2017,02,14,08,01,4.50
2017,02,14,08,02,4.50
2017,02,14,08,03,4.50
2017,02,14,08,04,4.50
2017,02,14,08,05,4.40
2017,02,14,08,06,4.40
2017,02,14,08,07,4.30
2017,02,14,08,08,4.30
2017,02,14,08,09,4.30
2017,02,14,08,10,4.30
2017,02,14,08,11,4.30
2017,02,14,08,12,4.30
2017,02,14,08,13,4.30
2017,02,14,08,14,4.30
2017,02,14,08,15,4.40
2017,02,14,08,16,4.50
2017,02,14,08,17,4.50
2017,02,14,08,18,4.70
2017,02,14,08,19,4.80
2017,02,14,08,20,4.90
2017,02,14,08,21,4.90
2017,02,14,08,22,5.00
2017,02,14,08,23,5.10
2017,02,14,08,24,5.20
2017,02,14,08,25,5.30
2017,02,14,08,26,5.30
2017,02,14,08,27,5.40
2017,02,14,08,28,5.40
2017,02,14,08,29,5.40
2017,02,14,08,30,5.40
2017,02,14,08,31,5.40
2017,02,14,08,32,5.40
2017,02,14,08,33,5.40
2017,02,14,08,34,5.40
2017,02,14,08,35,5.40
2017,02,14,08,36,5.40
2017,02,14,08,37,5.50
2017,02,14,08,38,5.50
2017,02,14,08,39,5.60
2017,02,14,08,40,5.70
2017,02,14,08,41,5.80
2017,02,14,08,42,5.90
2017,02,14,08,43,6.00
2017,02,14,08,44,6.00
2017,02,14,08,45,6.10
2017,02,14,08,46,6.10
2017,02,14,08,47,6.20
2017,02,14,08,48,6.20
2017,02,14,08,49,6.20
2017,02,14,08,50,6.20
2017,02,14,08,51,6.30
2017,02,14,08,52,6.30
2017,02,14,08,53,6.30
2017,02,14,08,54,6.30
2017,02,14,08,55,6.40
2017,02,14,08,56,6.40
2017,02,14,08,57,6.40
2017,02,14,08,58,6.40
2017,02,14,08,59,6.40
2017,02,14,09,00,6.40
2017,02,14,09,01,6.40
2017,02,14,09,02,6.40
2017,02,14,09,03,6.40
2017,02,14,09,04,6.40
2017,02,14,09,05,6.40
2017,02,14,09,06,6.40
2017,02,14,09,07,6.30
2017,02,14,09,08,6.30
2017,02,14,09,09,6.30
2017,02,14,09,10,6.30
2017,02,14,09,11,6.30
2017,02,14,09,12,6.30
2017,02,14,09,13,6.40
2017,02,14,09,14,6.40
2017,02,14,09,15,6.50
2017,02,14,09,16,6.50
2017,02,14,09,17,6.60
2017,02,14,09,18,6.60
2017,02,14,09,19,6.60
2017,02,14,09,20,6.60
2017,02,14,09,21,6.70
2017,02,14,09,22,6.70
2017,02,14,09,23,6.60
2017,02,14,09,24,6.60
2017,02,14,09,25,6.60
2017,02,14,09,26,6.60
2017,02,14,09,27,6.50
2017,02,14,09,28,6.50
2017,02,14,09,29,6.50
2017,02,14,09,30,6.50
2017,02,14,09,31,6.40
2017,02,14,09,32,6.40
2017,02,14,09,33,6.40
2017,02,14,09,34,6.40
2017,02,14,09,35,6.40
2017,02,14,09,36,6.40
2017,02,14,09,37,6.40
2017,02,14,09,38,6.40
2017,02,14,09,39,6.40
2017,02,14,09,40,6.40
2017,02,14,09,41,6.40
2017,02,14,09,42,6.40
2017,02,14,09,43,6.50
2017,02,14,09,44,6.50
2017,02,14,09,45,6.60
2017,02,14,09,46,6.60
2017,02,14,09,47,6.60
2017,02,14,09,48,6.70
2017,02,14,09,49,6.70
2017,02,14,09,50,6.70
2017,02,14,09,51,6.60
2017,02,14,09,52,6.60
2017,02,14,09,53,6.60
2017,02,14,09,54,6.50
2017,02,14,09,55,6.50
2017,02,14,09,56,6.40
2017,02,14,09,57,6.40
2017,02,14,09,58,6.40
2017,02,14,09,59,6.40
2017,02,14,10,00,6.40
2017,02,14,10,01,6.40
2017,02,14,10,02,6.30
2017,02,14,10,03,6.30
2017,02,14,10,04,6.30
2017,02,14,10,05,6.30
2017,02,14,10,06,6.30
2017,02,14,10,07,6.30
2017,02,14,10,08,6.30
2017,02,14,10,09,6.30
2017,02,14,10,10,6.30
2017,02,14,10,11,6.30
2017,02,14,10,12,6.30
2017,02,14,10,13,6.30
2017,02,14,10,14,6.30
2017,02,14,10,15,6.30
2017,02,14,10,16,6.30
2017,02,14,10,17,6.30
2017,02,14,10,18,6.30
2017,02,14,10,19,6.30
2017,02,14,10,20,6.30
2017,02,14,10,21,6.30
2017,02,14,10,22,6.40
2017,02,14,10,23,6.40
2017,02,14,10,24,6.40
2017,02,14,10,25,6.40
2017,02,14,10,26,6.40
2017,02,14,10,27,6.40
2017,02,14,10,28,6.50
2017,02,14,10,29,6.50
2017,02,14,10,30,6.50
2017,02,14,10,31,6.60
2017,02,14,10,32,6.70
2017,02,14,10,33,6.70
2017,02,14,10,34,6.80
2017,02,14,10,35,6.80
2017,02,14,10,36,6.80
2017,02,14,10,37,6.90
2017,02,14,10,38,6.90
2017,02,14,10,39,7.00
2017,02,14,10,40,7.00
2017,02,14,10,41,7.10
2017,02,14,10,42,7.10
2017,02,14,10,43,7.10
2017,02,14,10,44,7.10
2017,02,14,10,45,7.10
2017,02,14,10,46,7.20
2017,02,14,10,47,7.20
2017,02,14,10,48,7.20
2017,02,14,10,49,7.10
2017,02,14,10,50,7.10
2017,02,14,10,51,7.10
2017,02,14,10,52,7.00
2017,02,14,10,53,7.00
2017,02,14,10,54,7.00
2017,02,14,10,55,6.90
2017,02,14,10,56,6.90
2017,02,14,10,57,6.90
2017,02,14,10,58,6.80
2017,02,14,10,59,6.80
2017,02,14,11,00,6.90
2017,02,14,11,01,6.90
2017,02,14,11,02,6.90
2017,02,14,11,03,6.90
2017,02,14,11,04,6.90
2017,02,14,11,05,6.90
2017,02,14,11,06,6.90
2017,02,14,11,07,7.00
2017,02,14,11,08,7.00
2017,02,14,11,09,7.10
2017,02,14,11,10,7.10
2017,02,14,11,11,7.10
2017,02,14,11,12,7.20
2017,02,14,11,13,7.20
2017,02,14,11,14,7.20
2017,02,14,11,15,7.20
2017,02,14,11,16,7.20
2017,02,14,11,17,7.20
2017,02,14,11,18,7.20
2017,02,14,11,19,7.20
2017,02,14,11,20,7.20
2017,02,14,11,21,7.20
2017,02,14,11,22,7.20
2017,02,14,11,23,7.20
2017,02,14,11,24,7.20
2017,02,14,11,25,7.20
2017,02,14,11,26,7.20
2017,02,14,11,27,7.20
2017,02,14,11,28,7.20
2017,02,14,11,29,7.30
2017,02,14,11,30,7.30
2017,02,14,11,31,7.30
2017,02,14,11,32,7.30
2017,02,14,11,33,7.30
2017,02,14,11,34,7.30
2017,02,14,11,35,7.30
2017,02,14,11,36,7.30
2017,02,14,11,37,7.30
2017,02,14,11,38,7.30
2017,02,14,11,39,7.30
2017,02,14,11,40,7.40
2017,02,14,11,41,7.40
2017,02,14,11,42,7.40
2017,02,14,11,43,7.40
2017,02,14,11,44,7.40
2017,02,14,11,45,7.50
2017,02,14,11,46,7.50
2017,02,14,11,47,7.50
2017,02,14,11,48,7.60
2017,02,14,11,49,7.60
2017,02,14,11,50,7.60
2017,02,14,11,51,7.60
2017,02,14,11,52,7.60
2017,02,14,11,53,7.60
2017,02,14,11,54,7.70
2017,02,14,11,55,7.70
2017,02,14,11,56,7.70
2017,02,14,11,57,7.70
2017,02,14,11,58,7.70
2017,02,14,11,59,7.70
2017,02,14,12,00,7.70
2017,02,14,12,01,7.80
2017,02,14,12,02,7.80
2017,02,14,12,03,7.80
2017,02,14,12,04,7.80
2017,02,14,12,05,7.80
2017,02,14,12,06,7.80
2017,02,14,12,07,7.80
2017,02,14,12,08,7.80
2017,02,14,12,09,7.80
2017,02,14,12,10,7.80
2017,02,14,12,11,7.80
2017,02,14,12,12,7.80
2017,02,14,12,13,7.80
2017,02,14,12,14,7.80
2017,02,14,12,15,7.80
2017,02,14,12,16,7.80
2017,02,14,12,17,7.70
2017,02,14,12,18,7.70
2017,02,14,12,19,7.80
2017,02,14,12,20,7.80
2017,02,14,12,21,7.80
2017,02,14,12,22,7.80
2017,02,14,12,23,7.80
2017,02,14,12,24,7.80
2017,02,14,12,25,7.80
2017,02,14,12,26,7.80
2017,02,14,12,27,7.80
2017,02,14,12,28,7.80
2017,02,14,12,29,7.80
2017,02,14,12,30,7.80
2017,02,14,12,31,7.80
2017,02,14,12,32,7.80
2017,02,14,12,33,7.80
2017,02,14,12,34,7.80
2017,02,14,12,35,7.80
2017,02,14,12,36,7.80
2017,02,14,12,37,7.80
2017,02,14,12,38,7.80
2017,02,14,12,39,7.80
2017,02,14,12,40,7.80
2017,02,14,12,41,7.80
2017,02,14,12,42,7.80
2017,02,14,12,43,7.80
2017,02,14,12,44,7.80
2017,02,14,12,45,7.80
2017,02,14,12,46,7.80
2017,02,14,12,47,7.80
2017,02,14,12,48,7.80
2017,02,14,12,49,7.80
2017,02,14,12,50,7.80
2017,02,14,12,51,7.80
2017,02,14,12,52,7.90
2017,02,14,12,53,7.90
2017,02,14,12,54,7.90
2017,02,14,12,55,7.90
2017,02,14,12,56,7.90
2017,02,14,12,57,8.00
2017,02,14,12,58,8.00
2017,02,14,12,59,8.00
2017,02,14,13,00,8.00
2017,02,14,13,01,8.00
2017,02,14,13,02,8.10
2017,02,14,13,03,8.10
2017,02,14,13,04,8.10
2017,02,14,13,05,8.10
2017,02,14,13,06,8.10
2017,02,14,13,07,8.10
2017,02,14,13,08,8.10
2017,02,14,13,09,8.10
2017,02,14,13,10,8.20
2017,02,14,13,11,8.20
2017,02,14,13,12,8.20
2017,02,14,13,13,8.30
2017,02,14,13,14,8.30
2017,02,14,13,15,8.30
2017,02,14,13,16,8.30
2017,02,14,13,17,8.40
2017,02,14,13,18,8.40
2017,02,14,13,19,8.40
2017,02,14,13,20,8.50
2017,02,14,13,21,8.50
2017,02,14,13,22,8.60
2017,02,14,13,23,8.60
2017,02,14,13,24,8.60
2017,02,14,13,25,8.60
2017,02,14,13,26,8.60
2017,02,14,13,27,8.70
2017,02,14,13,28,8.70
2017,02,14,13,29,8.70
2017,02,14,13,30,8.80
2017,02,14,13,31,8.80
2017,02,14,13,32,8.80
2017,02,14,13,33,8.80
2017,02,14,13,34,8.80
2017,02,14,13,35,8.80
2017,02,14,13,36,8.80
2017,02,14,13,37,8.80
2017,02,14,13,38,8.80
2017,02,14,13,39,8.80
2017,02,14,13,40,8.90
2017,02,14,13,41,8.90
2017,02,14,13,42,8.80
2017,02,14,13,43,8.80
2017,02,14,13,44,8.80
2017,02,14,13,45,8.80
2017,02,14,13,46,8.80
2017,02,14,13,47,8.70
2017,02,14,13,48,8.70
2017,02,14,13,49,8.70
2017,02,14,13,50,8.70
2017,02,14,13,51,8.70
2017,02,14,13,52,8.70
2017,02,14,13,53,8.70
2017,02,14,13,54,8.70
2017,02,14,13,55,8.80
2017,02,14,13,56,8.70
2017,02,14,13,57,8.80
2017,02,14,13,58,8.80
2017,02,14,13,59,8.80
2017,02,14,14,00,8.80
2017,02,14,14,01,8.80
2017,02,14,14,02,8.80
2017,02,14,14,03,8.90
2017,02,14,14,04,8.90
2017,02,14,14,05,8.90
2017,02,14,14,06,9.00
2017,02,14,14,07,9.00
2017,02,14,14,08,9.00
2017,02,14,14,09,9.10
2017,02,14,14,10,9.10
2017,02,14,14,11,9.10
2017,02,14,14,12,9.10
2017,02,14,14,13,9.10
2017,02,14,14,14,9.10
2017,02,14,14,15,9.10
2017,02,14,14,16,9.10
2017,02,14,14,17,9.10
2017,02,14,14,18,9.10
2017,02,14,14,19,9.10
2017,02,14,14,20,9.10
2017,02,14,14,21,9.10
2017,02,14,14,22,9.10
2017,02,14,14,23,9.10
2017,02,14,14,24,9.10
2017,02,14,14,25,9.10
2017,02,14,14,26,9.10
2017,02,14,14,27,9.10
2017,02,14,14,28,9.10
2017,02,14,14,29,9.10
2017,02,14,14,30,9.10
2017,02,14,14,31,9.10
2017,02,14,14,32,9.10
2017,02,14,14,33,9.10
2017,02,14,14,34,9.10
2017,02,14,14,35,9.10
2017,02,14,14,36,9.10
2017,02,14,14,37,9.10
2017,02,14,14,38,9.10
2017,02,14,14,39,9.10
2017,02,14,14,40,9.10
2017,02,14,14,41,9.10
2017,02,14,14,42,9.10
2017,02,14,14,43,9.10
2017,02,14,14,44,9.10
2017,02,14,14,45,9.10
2017,02,14,14,46,9.10
2017,02,14,14,47,9.00
2017,02,14,14,48,9.00
2017,02,14,14,49,9.00
2017,02,14,14,50,9.00
2017,02,14,14,51,9.00
2017,02,14,14,52,9.00
2017,02,14,14,53,9.00
2017,02,14,14,54,8.90
2017,02,14,14,55,8.90
2017,02,14,14,56,8.90
2017,02,14,14,57,8.90
2017,02,14,14,58,8.90
2017,02,14,14,59,8.90
2017,02,14,15,00,8.90
2017,02,14,15,01,9.00
2017,02,14,15,02,8.90
2017,02,14,15,03,8.90
2017,02,14,15,04,8.90
2017,02,14,15,05,8.90
2017,02,14,15,06,8.90
2017,02,14,15,07,8.90
2017,02,14,15,08,8.80
2017,02,14,15,09,8.80
2017,02,14,15,10,8.80
2017,02,14,15,11,8.80
2017,02,14,15,12,8.80
2017,02,14,15,13,8.70
2017,02,14,15,14,8.70
2017,02,14,15,15,8.70
2017,02,14,15,16,8.60
2017,02,14,15,17,8.60
2017,02,14,15,18,8.60
2017,02,14,15,19,8.50
2017,02,14,15,20,8.50
2017,02,14,15,21,8.40
2017,02,14,15,22,8.40
2017,02,14,15,23,8.30
2017,02,14,15,24,8.20
2017,02,14,15,25,8.20
2017,02,14,15,26,8.10
2017,02,14,15,27,8.00
2017,02,14,15,28,8.00
2017,02,14,15,29,7.90
2017,02,14,15,30,7.80
2017,02,14,15,31,7.80
2017,02,14,15,32,7.70
2017,02,14,15,33,7.70
2017,02,14,15,34,7.60
2017,02,14,15,35,7.60
2017,02,14,15,36,7.50
2017,02,14,15,37,7.50
2017,02,14,15,38,7.40
2017,02,14,15,39,7.40
2017,02,14,15,40,7.40
2017,02,14,15,41,7.30
2017,02,14,15,42,7.30
2017,02,14,15,43,7.30
2017,02,14,15,44,7.30
2017,02,14,15,45,7.30
2017,02,14,15,46,7.20
2017,02,14,15,47,7.20
2017,02,14,15,48,7.20
2017,02,14,15,49,7.20
2017,02,14,15,50,7.20
2017,02,14,15,51,7.20
2017,02,14,15,52,7.20
2017,02,14,15,53,7.20
2017,02,14,15,54,7.20
2017,02,14,15,55,7.20
2017,02,14,15,56,7.20
2017,02,14,15,57,7.20
2017,02,14,15,58,7.20
2017,02,14,15,59,7.10
2017,02,14,16,00,7.10
2017,02,14,16,01,7.10
2017,02,14,16,02,7.10
2017,02,14,16,03,7.20
2017,02,14,16,04,7.20
2017,02,14,16,05,7.20
2017,02,14,16,06,7.20
2017,02,14,16,07,7.20
2017,02,14,16,08,7.20
2017,02,14,16,09,7.20
2017,02,14,16,10,7.20
2017,02,14,16,11,7.20
2017,02,14,16,12,7.10
2017,02,14,16,13,7.10
2017,02,14,16,14,7.10
2017,02,14,16,15,7.10
2017,02,14,16,16,7.10
2017,02,14,16,17,7.10
2017,02,14,16,18,7.10
2017,02,14,16,19,7.10
2017,02,14,16,20,7.10
2017,02,14,16,21,7.10
2017,02,14,16,22,7.00
2017,02,14,16,23,7.00
2017,02,14,16,24,7.00
2017,02,14,16,25,6.90
2017,02,14,16,26,6.90
2017,02,14,16,27,6.80
2017,02,14,16,28,6.80
2017,02,14,16,29,6.80
2017,02,14,16,30,6.80
2017,02,14,16,31,6.80
2017,02,14,16,32,6.80
2017,02,14,16,33,6.80
2017,02,14,16,34,6.80
2017,02,14,16,35,6.80
2017,02,14,16,36,6.80
2017,02,14,16,37,6.80
2017,02,14,16,38,6.80
2017,02,14,16,39,6.80
2017,02,14,16,40,6.70
2017,02,14,16,41,6.70
2017,02,14,16,42,6.70
2017,02,14,16,43,6.70
2017,02,14,16,44,6.60
2017,02,14,16,45,6.60
2017,02,14,16,46,6.50
2017,02,14,16,47,6.50
2017,02,14,16,48,6.50
2017,02,14,16,49,6.40
2017,02,14,16,50,6.40
2017,02,14,16,51,6.40
2017,02,14,16,52,6.30
2017,02,14,16,53,6.30
2017,02,14,16,54,6.30
2017,02,14,16,55,6.30
2017,02,14,16,56,6.30
2017,02,14,16,57,6.20
2017,02,14,16,58,6.20
2017,02,14,16,59,6.20
2017,02,14,17,00,6.30
2017,02,14,17,01,6.30
2017,02,14,17,02,6.30
2017,02,14,17,03,6.30
2017,02,14,17,04,6.30
2017,02,14,17,05,6.30
2017,02,14,17,06,6.30
2017,02,14,17,07,6.30
2017,02,14,17,08,6.30
2017,02,14,17,09,6.20
2017,02,14,17,10,6.20
2017,02,14,17,11,6.20
2017,02,14,17,12,6.20
2017,02,14,17,13,6.20
2017,02,14,17,14,6.20
2017,02,14,17,15,6.20
2017,02,14,17,16,6.20
2017,02,14,17,17,6.20
2017,02,14,17,18,6.20
2017,02,14,17,19,6.10
2017,02,14,17,20,6.10
2017,02,14,17,21,6.10
2017,02,14,17,22,6.10
2017,02,14,17,23,6.00
2017,02,14,17,24,6.00
2017,02,14,17,25,5.90
2017,02,14,17,26,5.90
2017,02,14,17,27,5.80
2017,02,14,17,28,5.80
2017,02,14,17,29,5.80
2017,02,14,17,30,5.80
2017,02,14,17,31,5.80
2017,02,14,17,32,5.80
2017,02,14,17,33,5.90
2017,02,14,17,34,5.90
2017,02,14,17,35,5.90
2017,02,14,17,36,6.00
2017,02,14,17,37,6.00
2017,02,14,17,38,6.00
2017,02,14,17,39,6.00
2017,02,14,17,40,6.00
2017,02,14,17,41,5.90
2017,02,14,17,42,5.90
2017,02,14,17,43,5.90
2017,02,14,17,44,6.00
2017,02,14,17,45,6.00
2017,02,14,17,46,6.00
2017,02,14,17,47,6.10
2017,02,14,17,48,6.10
2017,02,14,17,49,6.10
2017,02,14,17,50,6.10
2017,02,14,17,51,6.10
2017,02,14,17,52,6.10
2017,02,14,17,53,6.20
2017,02,14,17,54,6.20
2017,02,14,17,55,6.20
2017,02,14,17,56,6.20
2017,02,14,17,57,6.10
2017,02,14,17,58,6.10
2017,02,14,17,59,6.10
2017,02,14,18,00,6.10
2017,02,14,18,01,6.10
2017,02,14,18,02,6.10
2017,02,14,18,03,6.10
2017,02,14,18,04,6.10
2017,02,14,18,05,6.10